TimeMST,TemperatureF,Dew PointF,Humidity,Sea Level PressureIn,VisibilityMPH,Wind Direction,Wind SpeedMPH,Gust SpeedMPH,PrecipitationIn,Events,Conditions,WindDirDegrees,DateUTC
12:54 AM,23.0,10.0,58,30.16,10.0,East,5.8,-,N/A,,Clear,80,2013-01-10 07:54:00
1:54 AM,25.0,12.0,58,30.10,10.0,East,6.9,-,N/A,,Clear,100,2013-01-10 08:54:00
2:54 AM,19.9,10.0,65,30.12,10.0,North,4.6,-,N/A,,Clear,10,2013-01-10 09:54:00
3:54 AM,17.1,8.1,68,30.10,10.0,NNE,4.6,-,N/A,,Clear,20,2013-01-10 10:54:00
4:54 AM,18.0,9.0,68,30.09,10.0,North,3.5,-,N/A,,Clear,350,2013-01-10 11:54:00
5:54 AM,17.1,8.1,68,30.07,10.0,NE,4.6,-,N/A,,Clear,40,2013-01-10 12:54:00
6:54 AM,19.0,9.0,65,30.04,10.0,ENE,6.9,-,N/A,,Clear,70,2013-01-10 13:54:00
7:54 AM,19.9,10.0,65,30.02,10.0,NNE,8.1,-,N/A,,Clear,20,2013-01-10 14:54:00
8:54 AM,34.0,16.0,48,29.95,10.0,Calm,Calm,-,N/A,,Clear,0,2013-01-10 15:54:00
9:54 AM,35.1,14.0,42,29.93,10.0,SE,3.5,-,N/A,,Partly Cloudy,130,2013-01-10 16:54:00
10:54 AM,35.6,14.0,41,29.80,10.0,Calm,Calm,-,N/A,,Clear,0,2013-01-10 17:54:00
11:54 AM,37.9,12.9,36,29.80,10.0,SE,6.9,-,N/A,,Clear,140,2013-01-10 18:54:00
12:54 PM,37.0,12.9,37,29.79,10.0,South,3.5,-,N/A,,Partly Cloudy,190,2013-01-10 19:54:00
1:54 PM,39.9,12.0,32,29.74,10.0,Calm,Calm,-,N/A,,Partly Cloudy,0,2013-01-10 20:54:00
2:54 PM,39.9,14.0,35,29.75,10.0,Calm,Calm,-,N/A,,Partly Cloudy,0,2013-01-10 21:54:00
3:54 PM,43.0,14.0,31,29.73,10.0,WNW,3.5,-,N/A,,Partly Cloudy,300,2013-01-10 22:54:00
4:54 PM,37.0,12.0,36,29.74,10.0,SE,5.8,-,N/A,,Partly Cloudy,130,2013-01-10 23:54:00
5:54 PM,34.0,10.9,38,29.74,10.0,SE,4.6,-,N/A,,Clear,130,2013-01-11 00:54:00
6:54 PM,28.9,10.0,45,29.75,10.0,NE,3.5,-,N/A,,Partly Cloudy,50,2013-01-11 01:54:00
7:54 PM,37.9,5.0,25,29.70,10.0,South,4.6,-,N/A,,Scattered Clouds,190,2013-01-11 02:54:00
8:54 PM,36.0,3.9,26,29.64,10.0,ESE,4.6,-,N/A,,Scattered Clouds,110,2013-01-11 03:54:00
9:54 PM,37.9,6.1,27,29.60,10.0,WSW,16.1,23.0,N/A,,Partly Cloudy,240,2013-01-11 04:54:00
10:54 PM,39.9,9.0,28,29.56,10.0,South,15.0,-,N/A,,Clear,180,2013-01-11 05:54:00
11:54 PM,36.0,9.0,33,29.55,10.0,Calm,Calm,-,N/A,,Clear,0,2013-01-11 06:54:00